Location: Unspecified
(0.0000°N, 0.0000°E)
Time: 06:01:34
(UTC+00:00)

Hubble Space Telescope - Pass Details

Date: 18 October 2019
Orbit: 536 x 540 km, 28.5° (Epoch: 14 October)

Event Time Altitude Azimuth Distance (km) Brightness Sun altitude
Rises 18:24:42 0° 300° (WNW) 2,671 5.2 -9.7°
Reaches altitude 10° 18:26:57 10° 300° (WNW) 1,782 4.2 -10.3°
Maximum altitude 18:31:05 90° 237° (WSW) 538 0.7 -11.3°
Enters shadow 18:35:02 11° 120° (ESE) 1,713 2.9 -12.3°
